Tracking 19638 objects as of 22-Apr-2019
HD Live streaming from Space Station
objects crossing your sky now

COSMOS 1503

Track COSMOS 1503 now!
10-day predictions
COSMOS 1503 is classified as:


NORAD ID: 14401
Int'l Code: 1983-103A
Perigee: 781.2 km
Apogee: 801.9 km
Inclination: 74.0 °
Period: 100.5 minutes
Semi major axis: 7162 km
RCS: 2.2071 m2 (large)
Launch date: October 12, 1983
Source: Commonwealth of Independent States (former USSR) (CIS)
Launch site: PLESETSK MISSILE AND SPACE COMPLEX (PKMTR)
aabbcc
Your satellite tracking list
Your tracking list is empty




NASA's NSSDC Master Catalog

Two Line Element Set (TLE):
1 14401U 83103A   19111.20662833  .00000025  00000-0  18801-4 0  9997
2 14401  74.0455 202.6385 0014418 245.4131 114.5518 14.32189892855427
Source of the keplerian elements: AFSPC